Location: Newark
(59.4564°N, 26.6917°E)
Time: 20:53:34
(UTC+00:00)

SR - Pass Details

Date: 29 November 2019
Orbit: 573 x 882 km, 66.7° (Epoch: 15 December)

Event Time Altitude Azimuth Distance (km) Brightness Sun altitude
Rises 15:48:55 0° 295° (WNW) 3,442 ? -16.8°
Reaches altitude 10° 15:51:29 10° 301° (WNW) 2,527 ? -17.2°
Maximum altitude 15:57:11 46° 15° (NNE) 1,173 ? -17.9°
Enters shadow 15:59:40 30° 68° (ENE) 1,528 ? -18.2°
Drops below altitude 10° 16:02:53 10° 88° (E) 2,535 - -18.6°
Sets 16:05:28 0° 94° (E) 3,453 - -18.9°
